Location: Unspecified
(0.0000°N, 0.0000°E)
Time: 17:01:29
(UTC+00:00)

Vanguard 1 - Visible Passes

Search period start: 12 April 2021 00:00
Search period end: 22 April 2021 00:00
Orbit: 648 x 3834 km, 34.3° (Epoch: 12 April)

Date Brightness Start Highest point End Pass type
(mag) Time Alt. Az. Time Alt. Az. Time Alt. Az.
12 Apr 13.7 18:49:47 10° NW 19:04:48 20° N 19:17:46 10° NE visible
12 Apr 13.0 21:19:36 10° NW 21:34:47 31° NNE 21:34:47 31° NNE visible
12 Apr 13.8 23:46:31 10° NW 23:47:29 12° NW 23:47:29 12° NW visible
13 Apr 13.5 19:12:36 10° NNW 19:28:30 22° N 19:41:29 10° NE visible
13 Apr 13.0 21:40:52 10° NW 21:54:25 36° N 21:54:25 36° N visible
14 Apr 13.3 19:34:43 10° NNW 19:51:53 25° NNE 20:01:21 17° NE visible
14 Apr 13.0 22:02:09 10° NW 22:14:03 37° NNW 22:14:03 37° NNW visible
15 Apr 13.1 19:56:23 10° NNW 20:14:53 30° NNE 20:21:01 25° NE visible
15 Apr 13.1 22:23:31 10° NW 22:33:43 35° NW 22:33:43 35° NW visible
16 Apr 13.8 17:49:29 10° NW 18:05:01 21° N 18:19:38 10° NE visible
16 Apr 12.8 20:17:46 10° NW 20:37:31 37° NNE 20:40:42 35° NE visible
16 Apr 13.3 22:45:06 10° NW 22:53:24 30° NW 22:53:24 30° NW visible
17 Apr 13.7 18:11:53 10° NNW 18:28:45 23° NNE 18:43:45 10° ENE visible
17 Apr 12.6 20:39:04 10° NW 20:59:50 46° NNE 21:00:25 46° NNE visible
17 Apr 13.5 23:06:59 10° WNW 23:13:07 24° WNW 23:13:07 24° WNW visible
18 Apr 13.5 18:33:43 10° NNW 18:52:07 27° NNE 19:07:27 10° ENE visible
18 Apr 12.5 21:00:22 10° NW 21:20:10 56° NNE 21:20:10 56° NNE visible
18 Apr 13.7 23:29:14 10° WNW 23:32:52 17° WNW 23:32:52 17° WNW visible
19 Apr 13.2 18:55:12 10° NNW 19:15:07 33° NNE 19:27:13 18° ENE visible
19 Apr 12.4 21:21:47 10° NW 21:39:56 61° NNW 21:39:56 61° NNW visible
19 Apr 13.9 23:52:01 10° WNW 23:52:39 11° WNW 23:52:39 11° WNW visible
20 Apr 12.9 19:16:28 10° NW 19:37:46 40° NNE 19:47:02 27° ENE visible
20 Apr 12.6 21:43:25 10° NW 21:59:45 57° NW 21:59:45 57° NW visible
21 Apr 12.6 19:37:41 10° NW 20:00:04 50° NNE 20:06:52 39° ENE visible
21 Apr 12.8 22:05:20 10° WNW 22:19:35 48° WNW 22:19:35 48° WNW visible
